User: anonymous   Login
Location: Unspecified
(0.0000°N, 0.0000°E)
Time: 15:33:51
(UTC+00:00)
Language:

USA 113 - Orbit

View from above orbital plane
View from above orbital plane
View from above satellite
View from above satellite

Ground track
Ground track

The orbit data is extracted from the following two-line orbital elements,

1 23628U 95038A   19324.91636591 -.00000336  00000-0  00000+0 0  9997
2 23628  11.2447  31.5940 0001979 236.4478 225.0223  1.00263561  7540
Epoch (UTC): 20 November 2019 21:59:34
Eccentricity: 0.0001979
inclination: 11.2447°
perigee height: 35780 km
apogee height: 35797 km
right ascension of ascending node: 31.5940°
argument of perigee: 236.4478°
revolutions per day: 1.00263561
mean anomaly at epoch: 225.0223°
orbit number at epoch: 754

The dashed part of the orbit path shows where the satellite is in the earth's shadow,  

DLR